This is the latest recevied weather packets stored in our database for station/object OM3WYM-13. If no packets are shown the sender has not sent any weather packets the latest 10 day(s).
| Time | Temp. | Humidity | Pressure | Rain* | Wind** | Luminosity | Snow |
|---|---|---|---|---|---|---|---|
| 1778002808 | 22.78° C | 24% | 1009.1 hPa | - | - | - | - |
| 1778002208 | 23.33° C | 22% | 1009 hPa | - | - | - | - |
| 1778001608 | 23.89° C | 21% | 1008.9 hPa | - | - | - | - |
| 1778001008 | 25° C | 20% | 1008.9 hPa | - | - | - | - |
| 1778000408 | 25.56° C | 20% | 1008.8 hPa | - | - | - | - |
| 1777999808 | 26.11° C | 18% | 1008.7 hPa | - | - | - | - |
| 1777999208 | 27.78° C | 17% | 1008.6 hPa | - | - | - | - |
| 1777998608 | 27.78° C | 17% | 1008.8 hPa | - | - | - | - |
| 1777998008 | 27.22° C | 18% | 1008.8 hPa | - | - | - | - |
| 1777997408 | 26.67° C | 18% | 1008.9 hPa | - | - | - | - |
| 1777996808 | 26.11° C | 19% | 1009 hPa | - | - | - | - |
| 1777996208 | 26.67° C | 19% | 1009.1 hPa | - | - | - | - |
| 1777995608 | 27.22° C | 18% | 1009 hPa | - | - | - | - |
| 1777995008 | 28.33° C | 17% | 1009.1 hPa | - | - | - | - |
| 1777994408 | 29.44° C | 16% | 1009 hPa | - | - | - | - |
| 1777993808 | 28.89° C | 17% | 1009.2 hPa | - | - | - | - |
| 1777993208 | 28.89° C | 17% | 1009.3 hPa | - | - | - | - |
| 1777992608 | 28.33° C | 19% | 1009.4 hPa | - | - | - | - |
| 1777992008 | 28.33° C | 18% | 1009.4 hPa | - | - | - | - |
| 1777991408 | 28.89° C | 17% | 1009.6 hPa | - | - | - | - |
| 1777990808 | 29.44° C | 16% | 1009.6 hPa | - | - | - | - |
| 1777989608 | 28.89° C | 18% | 1009.8 hPa | - | - | - | - |
| 1777989008 | 28.89° C | 17% | 1010 hPa | - | - | - | - |
| 1777988408 | 29.44° C | 16% | 1010 hPa | - | - | - | - |
| 1777987808 | 30° C | 17% | 1009.9 hPa | - | - | - | - |
* Rain since midnight (hover to see other rain measurements)
** Current wind speed in m/s (hover to see current wind gust speed)